Time,TemperatureF,DewpointF,PressureIn,WindDirection,WindDirectionDegrees,WindSpeedMPH,WindSpeedGustMPH,Humidity,HourlyPrecipIn,Conditions,Clouds,dailyrainin,SoftwareType,DateUTC
2013-07-01 00:05:00,64.7,45.6,29.91,ENE,62,2.0,2.0,50,0.00,,,0.00,Wunderground v.1.15,2013-07-01 04:05:00,
2013-07-01 00:15:00,64.7,44.5,29.92,ENE,64,1.0,1.0,48,0.00,,,0.00,Wunderground v.1.15,2013-07-01 04:15:00,
2013-07-01 00:25:00,64.3,44.2,29.92,ENE,61,1.0,1.0,48,0.00,,,0.00,Wunderground v.1.15,2013-07-01 04:25:00,
2013-07-01 00:35:00,63.9,43.3,29.92,ENE,61,1.0,2.0,47,0.00,,,0.00,Wunderground v.1.15,2013-07-01 04:35:00,
2013-07-01 00:45:00,63.2,42.6,29.93,ENE,61,1.0,1.0,47,0.00,,,0.00,Wunderground v.1.15,2013-07-01 04:45:00,
2013-07-01 00:55:00,62.9,41.8,29.93,ENE,61,0.0,0.0,46,0.00,,,0.00,Wunderground v.1.15,2013-07-01 04:55:00,
2013-07-01 01:05:00,62.6,42.1,29.93,ENE,61,0.0,0.0,47,0.00,,,0.00,Wunderground v.1.15,2013-07-01 05:05:00,
2013-07-01 01:15:00,62.0,42.6,29.93,ENE,61,0.0,0.0,49,0.00,,,0.00,Wunderground v.1.15,2013-07-01 05:15:00,
2013-07-01 01:25:00,61.3,42.5,29.93,ENE,61,0.0,0.0,50,0.00,,,0.00,Wunderground v.1.15,2013-07-01 05:25:00,
2013-07-01 01:35:00,60.7,42.5,29.93,ENE,61,0.0,0.0,51,0.00,,,0.00,Wunderground v.1.15,2013-07-01 05:35:00,
2013-07-01 01:45:00,60.2,42.0,29.93,ENE,61,0.0,0.0,51,0.00,,,0.00,Wunderground v.1.15,2013-07-01 05:45:00,
2013-07-01 01:55:00,59.9,42.2,29.93,ENE,61,0.0,0.0,52,0.00,,,0.00,Wunderground v.1.15,2013-07-01 05:55:00,
2013-07-01 02:05:00,60.1,42.4,29.93,ENE,61,0.0,0.0,52,0.00,,,0.00,Wunderground v.1.15,2013-07-01 06:05:00,
2013-07-01 02:15:00,59.9,42.7,29.93,ENE,61,0.0,0.0,53,0.00,,,0.00,Wunderground v.1.15,2013-07-01 06:15:00,
2013-07-01 02:25:00,60.1,42.4,29.93,ENE,61,0.0,0.0,52,0.00,,,0.00,Wunderground v.1.15,2013-07-01 06:25:00,
2013-07-01 02:35:00,59.8,42.6,29.93,ENE,61,0.0,0.0,53,0.00,,,0.00,Wunderground v.1.15,2013-07-01 06:35:00,
2013-07-01 02:45:00,59.3,44.1,29.92,ENE,61,0.0,0.0,57,0.00,,,0.00,Wunderground v.1.15,2013-07-01 06:45:00,
2013-07-01 02:55:00,58.7,44.4,29.92,ENE,61,0.0,0.0,59,0.00,,,0.00,Wunderground v.1.15,2013-07-01 06:55:00,
2013-07-01 03:05:00,58.3,44.5,29.92,ENE,61,0.0,0.0,60,0.00,,,0.00,Wunderground v.1.15,2013-07-01 07:05:00,
2013-07-01 03:15:00,58.3,44.9,29.92,ENE,60,0.0,0.0,61,0.00,,,0.00,Wunderground v.1.15,2013-07-01 07:15:00,
2013-07-01 03:25:00,58.6,45.2,29.93,ENE,59,0.0,0.0,61,0.00,,,0.00,Wunderground v.1.15,2013-07-01 07:25:00,
2013-07-01 03:35:00,58.4,45.0,29.93,NE,51,0.0,0.0,61,0.00,,,0.00,Wunderground v.1.15,2013-07-01 07:35:00,
2013-07-01 03:45:00,58.6,45.2,29.93,NE,49,1.0,3.0,61,0.00,,,0.00,Wunderground v.1.15,2013-07-01 07:45:00,
2013-07-01 03:55:00,58.6,45.2,29.93,NE,48,1.0,4.0,61,0.00,,,0.00,Wunderground v.1.15,2013-07-01 07:55:00,
2013-07-01 04:05:00,58.6,45.6,29.93,NE,46,1.0,2.0,62,0.00,,,0.00,Wunderground v.1.15,2013-07-01 08:05:00,
2013-07-01 04:15:00,58.6,45.6,29.93,NE,43,2.0,2.0,62,0.00,,,0.00,Wunderground v.1.15,2013-07-01 08:15:00,
2013-07-01 04:25:00,58.6,46.0,29.93,NE,42,1.0,1.0,63,0.00,,,0.00,Wunderground v.1.15,2013-07-01 08:25:00,
2013-07-01 04:35:00,58.4,46.3,29.93,NE,39,2.0,3.0,64,0.00,,,0.00,Wunderground v.1.15,2013-07-01 08:35:00,
2013-07-01 04:45:00,58.4,46.3,29.93,NE,40,3.0,3.0,64,0.00,,,0.00,Wunderground v.1.15,2013-07-01 08:45:00,
2013-07-01 04:55:00,58.6,46.5,29.93,NE,35,3.0,3.0,64,0.00,,,0.00,Wunderground v.1.15,2013-07-01 08:55:00,
2013-07-01 05:05:00,58.6,46.5,29.93,NE,35,3.0,3.0,64,0.00,,,0.00,Wunderground v.1.15,2013-07-01 09:05:00,
2013-07-01 05:15:00,58.3,46.6,29.93,NE,34,1.0,1.0,65,0.00,,,0.00,Wunderground v.1.15,2013-07-01 09:15:00,
2013-07-01 05:25:00,58.1,46.8,29.93,NE,34,1.0,1.0,66,0.00,,,0.00,Wunderground v.1.15,2013-07-01 09:25:00,
2013-07-01 05:35:00,57.8,46.9,29.93,NNE,32,1.0,1.0,67,0.00,,,0.00,Wunderground v.1.15,2013-07-01 09:35:00,
2013-07-01 05:45:00,57.3,46.8,29.94,NNE,30,0.0,0.0,68,0.00,,,0.00,Wunderground v.1.15,2013-07-01 09:45:00,
2013-07-01 05:55:00,56.9,47.2,29.94,NNE,30,0.0,0.0,70,0.00,,,0.00,Wunderground v.1.15,2013-07-01 09:55:00,
2013-07-01 06:05:00,56.5,47.2,29.94,NNE,30,0.0,0.0,71,0.00,,,0.00,Wunderground v.1.15,2013-07-01 10:05:00,
2013-07-01 06:15:00,56.2,46.9,29.95,NNE,30,1.0,1.0,71,0.00,,,0.00,Wunderground v.1.15,2013-07-01 10:15:00,
2013-07-01 06:25:00,56.2,47.3,29.95,NNE,30,1.0,1.0,72,0.00,,,0.00,Wunderground v.1.15,2013-07-01 10:25:00,
2013-07-01 06:35:00,56.0,47.1,29.95,NNE,30,0.0,0.0,72,0.00,,,0.00,Wunderground v.1.15,2013-07-01 10:35:00,
2013-07-01 06:45:00,55.9,47.4,29.95,NNE,30,0.0,0.0,73,0.00,,,0.00,Wunderground v.1.15,2013-07-01 10:45:00,
2013-07-01 06:55:00,56.0,47.5,29.95,NNE,30,0.0,0.0,73,0.00,,,0.00,Wunderground v.1.15,2013-07-01 10:55:00,
2013-07-01 07:05:00,56.3,48.1,29.95,NNE,30,0.0,0.0,74,0.00,,,0.00,Wunderground v.1.15,2013-07-01 11:05:00,
2013-07-01 07:15:00,56.6,48.4,29.95,NNE,30,1.0,2.0,74,0.00,,,0.00,Wunderground v.1.15,2013-07-01 11:15:00,
2013-07-01 07:25:00,56.9,48.3,29.96,NNE,30,1.0,1.0,73,0.00,,,0.00,Wunderground v.1.15,2013-07-01 11:25:00,
2013-07-01 07:35:00,57.2,48.3,29.96,NNE,30,1.0,2.0,72,0.00,,,0.00,Wunderground v.1.15,2013-07-01 11:35:00,
2013-07-01 07:45:00,57.8,48.5,29.96,NNE,30,1.0,1.0,71,0.00,,,0.00,Wunderground v.1.15,2013-07-01 11:45:00,
2013-07-01 07:55:00,58.4,49.4,29.97,NNE,30,0.0,0.0,72,0.00,,,0.00,Wunderground v.1.15,2013-07-01 11:55:00,
2013-07-01 08:05:00,58.7,49.7,29.97,NNE,30,0.0,3.0,72,0.00,,,0.00,Wunderground v.1.15,2013-07-01 12:05:00,
2013-07-01 08:15:00,59.2,49.8,29.96,NNE,30,1.0,1.0,71,0.00,,,0.00,Wunderground v.1.15,2013-07-01 12:15:00,
2013-07-01 08:25:00,59.6,50.6,29.97,NNE,29,1.0,3.0,72,0.00,,,0.00,Wunderground v.1.15,2013-07-01 12:25:00,
2013-07-01 08:35:00,60.1,49.9,29.97,NNE,30,2.0,2.0,69,0.00,,,0.00,Wunderground v.1.15,2013-07-01 12:35:00,
2013-07-01 08:45:00,60.9,50.7,29.97,NNE,30,1.0,2.0,69,0.00,,,0.00,Wunderground v.1.15,2013-07-01 12:45:00,
2013-07-01 08:55:00,61.6,50.5,29.97,NNE,24,2.0,4.0,67,0.00,,,0.00,Wunderground v.1.15,2013-07-01 12:55:00,
2013-07-01 09:05:00,62.4,50.9,29.97,NNE,25,2.0,3.0,66,0.00,,,0.00,Wunderground v.1.15,2013-07-01 13:05:00,
2013-07-01 09:15:00,63.1,51.1,29.97,NNE,25,1.0,2.0,65,0.00,,,0.00,Wunderground v.1.15,2013-07-01 13:15:00,
2013-07-01 09:25:00,63.7,51.3,29.98,NE,37,2.0,2.0,64,0.00,,,0.00,Wunderground v.1.15,2013-07-01 13:25:00,
2013-07-01 09:35:00,64.3,51.9,29.98,NE,36,1.0,1.0,64,0.00,,,0.00,Wunderground v.1.15,2013-07-01 13:35:00,
2013-07-01 09:45:00,65.0,52.1,29.98,NE,34,2.0,2.0,63,0.00,,,0.00,Wunderground v.1.15,2013-07-01 13:45:00,
2013-07-01 09:55:00,66.0,52.2,29.98,NNE,32,2.0,3.0,61,0.00,,,0.00,Wunderground v.1.15,2013-07-01 13:55:00,
2013-07-01 10:05:00,66.4,51.6,29.98,NE,34,3.0,4.0,59,0.00,,,0.00,Wunderground v.1.15,2013-07-01 14:05:00,
2013-07-01 10:15:00,67.1,52.3,29.98,NE,36,3.0,3.0,59,0.00,,,0.00,Wunderground v.1.15,2013-07-01 14:15:00,
2013-07-01 10:25:00,67.8,53.4,29.98,NE,37,3.0,3.0,60,0.00,,,0.00,Wunderground v.1.15,2013-07-01 14:25:00,
2013-07-01 10:35:00,68.6,53.7,29.98,NE,36,2.0,2.0,59,0.00,,,0.00,Wunderground v.1.15,2013-07-01 14:35:00,
2013-07-01 10:45:00,69.4,52.5,29.98,NNE,33,3.0,3.0,55,0.00,,,0.00,Wunderground v.1.15,2013-07-01 14:45:00,
2013-07-01 10:55:00,70.3,51.8,29.98,NE,34,3.0,3.0,52,0.00,,,0.00,Wunderground v.1.15,2013-07-01 14:55:00,
2013-07-01 11:05:00,70.8,49.0,29.98,ENE,78,5.0,11.0,46,0.00,,,0.00,Wunderground v.1.15,2013-07-01 15:05:00,
2013-07-01 11:15:00,70.9,49.7,29.98,ENE,62,7.0,7.0,47,0.00,,,0.00,Wunderground v.1.15,2013-07-01 15:15:00,
2013-07-01 11:25:00,71.6,50.3,29.98,NE,55,7.0,7.0,47,0.00,,,0.00,Wunderground v.1.15,2013-07-01 15:25:00,
2013-07-01 11:35:00,71.8,49.3,29.98,ENE,76,7.0,10.0,45,0.00,,,0.00,Wunderground v.1.15,2013-07-01 15:35:00,
2013-07-01 11:45:00,71.6,49.7,29.98,NE,45,7.0,7.0,46,0.00,,,0.00,Wunderground v.1.15,2013-07-01 15:45:00,
2013-07-01 11:55:00,71.8,49.3,29.99,NE,49,7.0,7.0,45,0.00,,,0.00,Wunderground v.1.15,2013-07-01 15:55:00,
2013-07-01 12:05:00,71.8,49.3,29.99,NE,43,7.0,12.0,45,0.00,,,0.00,Wunderground v.1.15,2013-07-01 16:05:00,
2013-07-01 12:15:00,71.6,49.7,29.99,NE,40,9.0,9.0,46,0.00,,,0.00,Wunderground v.1.15,2013-07-01 16:15:00,
2013-07-01 12:25:00,71.8,51.6,29.99,NNE,24,5.0,5.0,49,0.00,,,0.00,Wunderground v.1.15,2013-07-01 16:25:00,
2013-07-01 12:35:00,72.1,51.9,29.99,ENE,63,4.0,4.0,49,0.00,,,0.00,Wunderground v.1.15,2013-07-01 16:35:00,
2013-07-01 12:45:00,72.5,48.1,29.99,ENE,69,6.0,8.0,42,0.00,,,0.00,Wunderground v.1.15,2013-07-01 16:45:00,
2013-07-01 12:55:00,72.8,47.1,30.00,East,87,9.0,10.0,40,0.00,,,0.00,Wunderground v.1.15,2013-07-01 16:55:00,
2013-07-01 13:05:00,73.0,47.9,30.00,ENE,69,8.0,8.0,41,0.00,,,0.00,Wunderground v.1.15,2013-07-01 17:05:00,
2013-07-01 13:15:00,73.5,49.6,30.00,ENE,78,8.0,8.0,43,0.00,,,0.00,Wunderground v.1.15,2013-07-01 17:15:00,
2013-07-01 13:25:00,74.0,50.1,29.99,East,94,10.0,10.0,43,0.00,,,0.00,Wunderground v.1.15,2013-07-01 17:25:00,
2013-07-01 13:35:00,74.4,51.7,29.99,NE,56,8.0,12.0,45,0.00,,,0.00,Wunderground v.1.15,2013-07-01 17:35:00,
2013-07-01 13:45:00,74.7,50.1,29.99,East,86,11.0,11.0,42,0.00,,,0.00,Wunderground v.1.15,2013-07-01 17:45:00,
2013-07-01 13:55:00,75.3,51.3,29.99,East,79,8.0,8.0,43,0.00,,,0.00,Wunderground v.1.15,2013-07-01 17:55:00,
2013-07-01 14:05:00,76.1,50.7,29.99,East,97,7.0,7.0,41,0.00,,,0.00,Wunderground v.1.15,2013-07-01 18:05:00,
2013-07-01 14:15:00,75.8,49.8,29.99,ENE,72,9.0,9.0,40,0.00,,,0.00,Wunderground v.1.15,2013-07-01 18:15:00,
2013-07-01 14:25:00,75.1,48.4,29.99,NE,55,8.0,8.0,39,0.00,,,0.00,Wunderground v.1.15,2013-07-01 18:25:00,
2013-07-01 14:35:00,74.9,49.6,29.99,ENE,63,8.0,8.0,41,0.00,,,0.00,Wunderground v.1.15,2013-07-01 18:35:00,
2013-07-01 14:44:00,75.3,49.3,29.98,NE,53,9.0,10.0,40,0.00,,,0.00,Wunderground v.1.15,2013-07-01 18:44:00,
2013-07-01 14:55:00,75.8,51.1,29.98,NE,46,10.0,10.0,42,0.00,,,0.00,Wunderground v.1.15,2013-07-01 18:55:00,
2013-07-01 15:05:00,76.1,50.7,29.98,NE,53,7.0,10.0,41,0.00,,,0.00,Wunderground v.1.15,2013-07-01 19:05:00,
2013-07-01 15:15:00,75.8,49.1,29.98,ENE,76,10.0,10.0,39,0.00,,,0.00,Wunderground v.1.15,2013-07-01 19:15:00,
2013-07-01 15:25:00,76.1,46.5,29.98,ENE,73,11.0,11.0,35,0.00,,,0.00,Wunderground v.1.15,2013-07-01 19:25:00,
2013-07-01 15:35:00,76.5,47.6,29.98,NE,45,12.0,12.0,36,0.00,,,0.00,Wunderground v.1.15,2013-07-01 19:35:00,
2013-07-01 15:45:00,77.0,49.4,29.98,NE,55,12.0,12.0,38,0.00,,,0.00,Wunderground v.1.15,2013-07-01 19:45:00,
2013-07-01 15:55:00,77.0,46.5,29.98,NE,54,10.0,10.0,34,0.00,,,0.00,Wunderground v.1.15,2013-07-01 19:55:00,
2013-07-01 16:05:00,76.8,47.1,29.98,ENE,76,14.0,14.0,35,0.00,,,0.00,Wunderground v.1.15,2013-07-01 20:05:00,
2013-07-01 16:15:00,77.6,49.3,29.99,East,101,9.0,9.0,37,0.00,,,0.00,Wunderground v.1.15,2013-07-01 20:15:00,
2013-07-01 16:25:00,76.5,48.3,29.98,ENE,59,9.0,10.0,37,0.00,,,0.00,Wunderground v.1.15,2013-07-01 20:25:00,
2013-07-01 16:35:00,76.3,47.4,29.98,East,88,10.0,10.0,36,0.00,,,0.00,Wunderground v.1.15,2013-07-01 20:35:00,
2013-07-01 16:45:00,76.7,48.5,29.98,ENE,76,9.0,11.0,37,0.00,,,0.00,Wunderground v.1.15,2013-07-01 20:45:00,
2013-07-01 16:55:00,76.8,47.8,29.98,ENE,68,11.0,11.0,36,0.00,,,0.00,Wunderground v.1.15,2013-07-01 20:55:00,
2013-07-01 17:05:00,76.8,47.1,29.98,ENE,69,8.0,8.0,35,0.00,,,0.00,Wunderground v.1.15,2013-07-01 21:05:00,
2013-07-01 17:15:00,76.7,47.0,29.99,NE,53,8.0,12.0,35,0.00,,,0.00,Wunderground v.1.15,2013-07-01 21:15:00,
2013-07-01 17:25:00,76.3,48.8,29.99,ENE,65,8.0,8.0,38,0.00,,,0.00,Wunderground v.1.15,2013-07-01 21:25:00,
2013-07-01 17:35:00,76.7,48.5,29.99,ENE,65,8.0,8.0,37,0.00,,,0.00,Wunderground v.1.15,2013-07-01 21:35:00,
2013-07-01 17:45:00,76.3,48.1,30.00,ESE,103,7.0,8.0,37,0.00,,,0.00,Wunderground v.1.15,2013-07-01 21:45:00,
2013-07-01 17:55:00,76.7,46.2,30.00,NE,51,12.0,18.0,34,0.00,,,0.00,Wunderground v.1.15,2013-07-01 21:55:00,
2013-07-01 18:05:00,76.1,46.5,30.00,NE,49,11.0,11.0,35,0.00,,,0.00,Wunderground v.1.15,2013-07-01 22:05:00,
2013-07-01 18:15:00,75.6,46.8,30.00,ENE,71,9.0,17.0,36,0.00,,,0.00,Wunderground v.1.15,2013-07-01 22:15:00,
2013-07-01 18:25:00,75.4,46.6,29.99,ENE,66,11.0,11.0,36,0.00,,,0.00,Wunderground v.1.15,2013-07-01 22:25:00,
2013-07-01 18:35:00,74.9,46.1,29.99,ENE,66,10.0,10.0,36,0.00,,,0.00,Wunderground v.1.15,2013-07-01 22:35:00,
2013-07-01 18:45:00,75.1,47.0,29.99,ENE,66,7.0,7.0,37,0.00,,,0.00,Wunderground v.1.15,2013-07-01 22:45:00,
2013-07-01 18:55:00,74.9,48.3,29.99,East,87,7.0,7.0,39,0.00,,,0.00,Wunderground v.1.15,2013-07-01 22:55:00,
2013-07-01 19:05:00,74.6,46.6,29.99,NE,53,9.0,10.0,37,0.00,,,0.00,Wunderground v.1.15,2013-07-01 23:05:00,
2013-07-01 19:15:00,74.4,47.1,29.99,NE,51,8.0,18.0,38,0.00,,,0.00,Wunderground v.1.15,2013-07-01 23:15:00,
2013-07-01 19:25:00,73.9,46.7,30.00,ENE,65,11.0,11.0,38,0.00,,,0.00,Wunderground v.1.15,2013-07-01 23:25:00,
2013-07-01 19:35:00,73.5,48.4,30.00,East,96,8.0,12.0,41,0.00,,,0.00,Wunderground v.1.15,2013-07-01 23:35:00,
2013-07-01 19:45:00,73.2,48.7,30.00,ENE,58,7.0,8.0,42,0.00,,,0.00,Wunderground v.1.15,2013-07-01 23:45:00,
2013-07-01 19:55:00,73.0,48.5,30.00,NE,46,6.0,16.0,42,0.00,,,0.00,Wunderground v.1.15,2013-07-01 23:55:00,
2013-07-01 20:04:00,72.8,48.4,30.00,ENE,61,8.0,8.0,42,0.00,,,0.00,Wunderground v.1.15,2013-07-02 00:04:00,
2013-07-01 20:15:00,72.5,47.5,30.00,NE,47,8.0,13.0,41,0.00,,,0.00,Wunderground v.1.15,2013-07-02 00:15:00,
2013-07-01 20:25:00,72.0,47.6,30.00,East,85,7.0,7.0,42,0.00,,,0.00,Wunderground v.1.15,2013-07-02 00:25:00,
2013-07-01 20:35:00,71.8,48.1,30.00,ENE,59,6.0,6.0,43,0.00,,,0.00,Wunderground v.1.15,2013-07-02 00:35:00,
2013-07-01 20:45:00,71.5,48.4,30.00,ENE,59,5.0,5.0,44,0.00,,,0.00,Wunderground v.1.15,2013-07-02 00:45:00,
2013-07-01 20:55:00,70.9,48.5,30.00,East,94,5.0,5.0,45,0.00,,,0.00,Wunderground v.1.15,2013-07-02 00:55:00,
2013-07-01 21:05:00,70.4,48.0,30.00,NE,51,5.0,5.0,45,0.00,,,0.00,Wunderground v.1.15,2013-07-02 01:05:00,
2013-07-01 21:15:00,69.9,48.2,30.00,East,85,5.0,5.0,46,0.00,,,0.00,Wunderground v.1.15,2013-07-02 01:15:00,
2013-07-01 21:25:00,69.4,48.3,30.00,NE,51,5.0,8.0,47,0.00,,,0.00,Wunderground v.1.15,2013-07-02 01:25:00,
2013-07-01 21:35:00,68.8,48.9,30.00,ENE,57,4.0,8.0,49,0.00,,,0.00,Wunderground v.1.15,2013-07-02 01:35:00,
2013-07-01 21:45:00,68.3,48.9,30.00,ENE,64,4.0,4.0,50,0.00,,,0.00,Wunderground v.1.15,2013-07-02 01:45:00,
2013-07-01 21:55:00,67.6,47.8,30.01,ENE,62,4.0,5.0,49,0.00,,,0.00,Wunderground v.1.15,2013-07-02 01:55:00,
2013-07-01 22:05:00,67.3,46.9,30.01,NE,42,5.0,9.0,48,0.00,,,0.00,Wunderground v.1.15,2013-07-02 02:05:00,
2013-07-01 22:15:00,66.9,46.0,30.01,ENE,69,4.0,4.0,47,0.00,,,0.00,Wunderground v.1.15,2013-07-02 02:15:00,
2013-07-01 22:25:00,66.4,45.0,30.01,ENE,65,4.0,4.0,46,0.00,,,0.00,Wunderground v.1.15,2013-07-02 02:25:00,
2013-07-01 22:35:00,66.0,44.6,30.01,ENE,65,3.0,3.0,46,0.00,,,0.00,Wunderground v.1.15,2013-07-02 02:35:00,
2013-07-01 22:45:00,65.5,44.2,30.02,ENE,68,3.0,3.0,46,0.00,,,0.00,Wunderground v.1.15,2013-07-02 02:45:00,
2013-07-01 22:55:00,65.0,44.3,30.03,ENE,69,2.0,4.0,47,0.00,,,0.00,Wunderground v.1.15,2013-07-02 02:55:00,
2013-07-01 23:05:00,64.8,44.1,30.03,ENE,57,3.0,3.0,47,0.00,,,0.00,Wunderground v.1.15,2013-07-02 03:05:00,
2013-07-01 23:15:00,64.3,44.2,30.03,ENE,69,1.0,3.0,48,0.00,,,0.00,Wunderground v.1.15,2013-07-02 03:15:00,
2013-07-01 23:25:00,64.3,43.6,30.03,ENE,64,3.0,7.0,47,0.00,,,0.00,Wunderground v.1.15,2013-07-02 03:25:00,
2013-07-01 23:35:00,64.2,43.0,30.03,ENE,68,4.0,4.0,46,0.00,,,0.00,Wunderground v.1.15,2013-07-02 03:35:00,
2013-07-01 23:45:00,64.0,42.8,30.03,East,82,2.0,2.0,46,0.00,,,0.00,Wunderground v.1.15,2013-07-02 03:45:00,
2013-07-01 23:55:00,63.9,43.3,30.03,East,90,2.0,2.0,47,0.00,,,0.00,Wunderground v.1.15,2013-07-02 03:55:00,